Home > Weather > Feira de Santana > Past weeks

Flag for Brazil Past Weather in Feira de Santana, Bahia, Brazil — Yesterday and Last 2 Weeks

Now
77 °F

Partly cloudy.


Feels Like: 79 °F
Forecast: N/A
Wind: 17 mph from South

Location: Salvador Aeroporto

Current Time: Jun 26, 2016 at 7:40:28 PM

Latest Report: Jun 26, 2016 at 7:00 PM


Visibility: N/A

Pressure: 30.12 "Hg

Humidity: 69%

Dew Point: 66 °F

Location of Feira de SantanaLocation

Past Weather in Feira de Santana — Graph

°F

Feira de Santana Temperature Yesterday

Maximum temperature yesterday: 84 °F (at 12:00 PM)
Minimum temperature yesterday: 75 °F (at 10:00 PM)
Average temperature yesterday: 79 °F

High & Low Weather Summary for the Past Weeks

 TemperatureHumidityPressure
High84 °F (Jun 12, 10:00 AM)100% (Jun 18, 7:00 PM)30.24 "Hg (Jun 18, 7:00 PM)
Low39 °F (Jun 18, 7:00 PM)51% (Jun 17, 10:00 AM)30.04 "Hg (Jun 11, 6:00 PM)
Average78 °F71%30.10 "Hg
* Reported Jun 11 6:00 PM — Jun 26 6:00 PM, Feira de Santana, Weather by CustomWeather, © 2016

Note: Actual official high and low records may vary slightly from our data, if they occured in-between our weather recording intervals... More about our weather records

Advertising

Feira de Santana Weather History for the Previous 24 Hours

Scroll right to see more
 ConditionsComfort  
Time TempWeatherWind HumidityBarometerVisibility
6:00 PM
Sun, Jun 26
77 °FPartly cloudy.15 mph69%30.12 "HgN/A
5:00 PM77 °FBroken clouds.15 mph74%30.12 "HgN/A
4:00 PM79 °FBroken clouds.14 mph61%30.12 "HgN/A
3:00 PM79 °FMore clouds than sun.18 mph58%30.09 "HgN/A
2:00 PM79 °FPartly sunny.17 mph61%30.09 "HgN/A
1:00 PM79 °FPartly sunny.14 mph65%30.12 "HgN/A
12:00 PM79 °FPartly sunny.21 mph65%30.12 "Hg5 mi
11:00 AM77 °FLight rain. Mostly cloudy.17 mph74%30.12 "Hg4 mi
10:00 AM75 °FLight rain. Partly sunny.12 mph83%30.15 "Hg2 mi
9:00 AM72 °FRain. Partly sunny.12 mph94%N/A2 mi
8:00 AM75 °FBroken clouds.18 mph83%30.12 "Hg5 mi
7:00 AM75 °FScattered clouds.14 mph78%30.09 "HgN/A
6:00 AM75 °FScattered clouds.17 mph78%30.09 "HgN/A
5:00 AM75 °FPartly cloudy.18 mph83%30.07 "HgN/A
4:00 AM77 °FPassing clouds.13 mph74%30.07 "HgN/A
3:00 AM75 °FPassing clouds.20 mph78%30.07 "Hg5 mi
2:00 AM75 °FMostly cloudy.10 mph78%30.07 "Hg5 mi
1:00 AM75 °FMostly cloudy.9 mph78%30.09 "HgN/A
12:00 AM77 °FPartly cloudy.15 mph69%30.09 "HgN/A
11:00 PM
Sat, Jun 25
77 °FPassing clouds.17 mph79%30.09 "Hg5 mi
10:00 PM75 °FLight rain. Passing clouds.16 mph78%30.12 "Hg5 mi
9:00 PM79 °FPassing clouds.14 mph70%30.09 "HgN/A
8:00 PM79 °FPartly cloudy.16 mph70%30.09 "HgN/A
7:00 PM79 °FPartly cloudy.12 mph70%30.07 "HgN/A
Weather by CustomWeather, © 2016

See weather overviewHow to use our weather pages